Worland, WY

4:25 PM MDT on March 22, 2017 (GMT -0600)
Worland Municipal

Weather History for KWRL - April, 2014

Change the Weather History Date:

Wednesday, April 23, 2014

  Actual Average Record
Temperature  
Mean Temperature 46 °F 48 °F  
Max Temperature 60 °F 62 °F 88 °F (2012)
Min Temperature 31 °F 33 °F 4 °F (2013)
Degree Days  
Heating Degree Days 19 17  
Month to date heating degree days 458 469  
Since 1 July heating degree days 7778 7355  
Cooling Degree Days 0 0  
Month to date cooling degree days 0 0  
Year to date cooling degree days 0 0  
Moisture  
Dew Point 24 °F    
Average Humidity 39    
Maximum Humidity 63    
Minimum Humidity 15    
Precipitation  
Precipitation T in 0.04 in 0.58 in (2016)
Month to date precipitation 0.27 0.57  
Year to date precipitation 1.05 1.45  
Sea Level Pressure  
Sea Level Pressure 29.62 in    
Wind  
Wind Speed 10 mph (WNW)    
Max Wind Speed 36 mph    
Max Gust Speed 43 mph    
Visibility 10 miles    
Events      
T = Trace of Precipitation, MM = Missing Value Source: NWS Daily Summary

Daily Weather History Graph

Daily Weather History Graph

Search for Another Location

Airport or City:

Trip Planner

Search our weather history database for the weather conditions in past years. The results will help you decide how hot, cold, wet, or windy it might be!

Date:

Astronomy

Apr. 23, 2014 Rise Set
Actual Time 6:15 AM MDT 8:05 PM MDT
Civil Twilight 5:44 AM MDT 8:36 PM MDT
Nautical Twilight 5:07 AM MDT 9:14 PM MDT
Astronomical Twilight 4:26 AM MDT 9:55 PM MDT
Moon 3:01 AM MDT (4/23) 2:05 PM MDT (4/23)
Length of Visible Light 14h 51m
Length of Day
13h 50m
Waning Crescent, 34% of the Moon is Illuminated
Apr 23
Waning Crescent
Apr 29
New
May 6
First Quarter
May 14
Full
May 21
Last Quarter

Hourly Weather History & Observations

Time (MDT) Temp. Windchill Dew Point Humidity Pressure Visibility Wind Dir Wind Speed Gust Speed Precip Events Conditions
12:34 AM 62.1 °F - 33.1 °F 34% 29.46 in 10.0 mi SW 20.7 mph 27.6 mph N/A   Mostly Cloudy
12:53 AM 61.0 °F - 34.0 °F 36% 29.38 in 7.0 mi SSW 39.1 mph 51.8 mph N/A   Overcast
1:53 AM 54.0 °F - 39.0 °F 57% 29.35 in 10.0 mi SSE 13.8 mph - N/A   Clear
2:53 AM 51.1 °F - 39.0 °F 63% 29.37 in 10.0 mi SW 10.4 mph - N/A   Clear
3:53 AM 53.1 °F - 39.0 °F 59% 29.36 in 10.0 mi SSW 12.7 mph - N/A   Partly Cloudy
4:53 AM 53.1 °F - 34.0 °F 48% 29.40 in 10.0 mi Variable 3.5 mph - N/A   Clear
5:53 AM 48.0 °F - 32.0 °F 54% 29.43 in 10.0 mi NE 3.5 mph - N/A   Clear
6:53 AM 48.9 °F - 28.0 °F 44% 29.48 in 10.0 mi West 5.8 mph - N/A   Clear
7:53 AM 50.0 °F - 28.9 °F 44% 29.54 in 10.0 mi NNW 12.7 mph 17.3 mph N/A   Mostly Cloudy
8:53 AM 51.1 °F - 30.9 °F 46% 29.57 in 10.0 mi NNW 15.0 mph - N/A   Overcast
9:53 AM 53.1 °F - 27.0 °F 37% 29.59 in 10.0 mi NNW 15.0 mph - N/A   Clear
11:53 AM 53.1 °F - 26.1 °F 35% 29.63 in 10.0 mi North 20.7 mph 29.9 mph N/A   Overcast
12:53 PM 50.0 °F - 24.1 °F 36% 29.68 in 10.0 mi NW 9.2 mph - N/A   Overcast
2:53 PM 51.1 °F - 27.0 °F 39% 29.73 in 10.0 mi North 11.5 mph 18.4 mph 0.00 in   Mostly Cloudy
3:53 PM 51.1 °F - 25.0 °F 36% 29.72 in 10.0 mi Variable 4.6 mph - N/A   Overcast
4:53 PM 53.1 °F - 23.0 °F 31% 29.73 in 10.0 mi Variable 4.6 mph - N/A   Overcast
5:53 PM 55.0 °F - 9.0 °F 16% 29.75 in 10.0 mi NNW 17.3 mph 20.7 mph N/A   Overcast
6:53 PM 53.1 °F - 6.1 °F 15% 29.77 in 10.0 mi NNW 19.6 mph - N/A   Clear
7:53 PM 50.0 °F - 5.0 °F 16% 29.81 in 10.0 mi WNW 13.8 mph - N/A   Clear
8:53 PM 46.0 °F 40.6 °F 8.1 °F 21% 29.84 in 10.0 mi WNW 11.5 mph - N/A   Clear
9:53 PM 39.9 °F 34.5 °F 12.0 °F 32% 29.87 in 10.0 mi SW 8.1 mph - N/A   Clear
10:53 PM 36.0 °F 33.3 °F 15.1 °F 43% 29.88 in 10.0 mi Variable 3.5 mph - N/A   Clear
11:53 PM 35.1 °F 31.0 °F 15.1 °F 44% 29.90 in 10.0 mi East 4.6 mph - N/A   Partly Cloudy